Time,TemperatureF,DewpointF,PressureIn,WindDirection,WindDirectionDegrees,WindSpeedMPH,WindSpeedGustMPH,Humidity,HourlyPrecipIn,Conditions,Clouds,dailyrainin,SoftwareType,DateUTC
2013-05-31 00:01:00,77.4,77.4,30.05,East,90,5.0,13.0,100,0.00,,,-99.99,WeatherLink 5.5,2013-05-31 04:01:00,
2013-05-31 00:06:00,77.3,77.3,30.04,East,90,4.0,9.0,100,0.00,,,-99.99,WeatherLink 5.5,2013-05-31 04:06:00,
2013-05-31 00:10:00,77.3,77.3,30.04,East,90,4.0,9.0,100,0.00,,,-99.99,WeatherLink 5.5,2013-05-31 04:10:00,
2013-05-31 00:15:00,77.4,77.4,30.05,East,90,5.0,13.0,100,0.00,,,-99.99,WeatherLink 5.5,2013-05-31 04:15:00,
2013-05-31 00:20:00,77.5,77.5,30.04,East,90,5.0,11.0,100,0.00,,,-99.99,WeatherLink 5.5,2013-05-31 04:20:00,
2013-05-31 00:26:00,77.5,77.5,30.06,East,90,6.0,14.0,100,0.01,,,-99.99,WeatherLink 5.5,2013-05-31 04:26:00,
2013-05-31 00:35:00,77.7,77.7,30.05,East,90,5.0,11.0,100,0.01,,,-99.99,WeatherLink 5.5,2013-05-31 04:35:00,
2013-05-31 00:40:00,77.6,77.6,30.03,East,90,7.0,16.0,100,0.01,,,-99.99,WeatherLink 5.5,2013-05-31 04:40:00,
2013-05-31 00:46:00,77.6,77.6,30.03,East,90,8.0,14.0,100,0.01,,,-99.99,WeatherLink 5.5,2013-05-31 04:46:00,
2013-05-31 00:55:00,76.7,76.7,30.03,East,90,6.0,15.0,100,0.01,,,-99.99,WeatherLink 5.5,2013-05-31 04:55:00,
2013-05-31 01:06:00,76.0,76.0,30.03,East,90,6.0,14.0,100,0.01,,,-99.99,WeatherLink 5.5,2013-05-31 05:06:00,
2013-05-31 01:11:00,76.1,76.1,30.03,East,90,5.0,11.0,100,0.01,,,-99.99,WeatherLink 5.5,2013-05-31 05:11:00,
2013-05-31 01:21:00,76.1,76.1,30.02,East,90,6.0,12.0,100,0.01,,,-99.99,WeatherLink 5.5,2013-05-31 05:21:00,
2013-05-31 01:30:00,76.3,76.3,30.02,East,90,3.0,9.0,100,0.00,,,-99.99,WeatherLink 5.5,2013-05-31 05:30:00,
2013-05-31 01:35:00,76.2,-99.9,30.02,East,90,3.0,8.0,-999,0.00,,,-99.99,WeatherLink 5.5,2013-05-31 05:35:00,
2013-05-31 01:41:00,76.0,74.1,30.02,ESE,112,3.0,12.0,94,0.00,,,-99.99,WeatherLink 5.5,2013-05-31 05:41:00,
2013-05-31 01:51:00,75.6,70.1,29.99,ESE,112,7.0,17.0,83,0.00,,,-99.99,WeatherLink 5.5,2013-05-31 05:51:00,
2013-05-31 01:56:00,75.5,-99.9,30.01,East,90,5.0,11.0,-999,0.00,,,-99.99,WeatherLink 5.5,2013-05-31 05:56:00,
2013-05-31 02:01:00,75.6,69.7,30.02,East,90,5.0,9.0,82,0.00,,,-99.99,WeatherLink 5.5,2013-05-31 06:01:00,
2013-05-31 02:11:00,75.9,-99.9,30.02,East,90,6.0,13.0,-999,0.00,,,-99.99,WeatherLink 5.5,2013-05-31 06:11:00,
2013-05-31 02:20:00,76.1,-99.9,30.04,East,90,3.0,12.0,-999,0.00,,,-99.99,WeatherLink 5.5,2013-05-31 06:20:00,
2013-05-31 02:26:00,76.1,-99.9,30.05,ESE,112,6.0,13.0,-999,0.00,,,-99.99,WeatherLink 5.5,2013-05-31 06:26:00,
2013-05-31 02:35:00,76.4,-99.9,30.06,ESE,112,6.0,11.0,-999,0.00,,,-99.99,WeatherLink 5.5,2013-05-31 06:35:00,
2013-05-31 02:46:00,76.6,-99.9,30.00,East,90,4.0,10.0,-999,0.00,,,-99.99,WeatherLink 5.5,2013-05-31 06:46:00,
2013-05-31 02:55:00,76.6,-99.9,30.00,ESE,112,5.0,12.0,-999,0.00,,,-99.99,WeatherLink 5.5,2013-05-31 06:55:00,
2013-05-31 03:06:00,76.7,-99.9,30.01,East,90,7.0,21.0,-999,0.00,,,-99.99,WeatherLink 5.5,2013-05-31 07:06:00,
2013-05-31 03:16:00,76.7,-99.9,30.01,East,90,4.0,12.0,-999,0.00,,,-99.99,WeatherLink 5.5,2013-05-31 07:16:00,
2013-05-31 03:25:00,76.6,-99.9,30.00,ESE,112,5.0,11.0,-999,0.00,,,-99.99,WeatherLink 5.5,2013-05-31 07:25:00,
2013-05-31 03:31:00,76.7,-99.9,30.00,East,90,3.0,7.0,-999,0.00,,,-99.99,WeatherLink 5.5,2013-05-31 07:31:00,
2013-05-31 03:40:00,76.8,-99.9,30.00,East,90,6.0,11.0,-999,0.00,,,-99.99,WeatherLink 5.5,2013-05-31 07:40:00,
2013-05-31 03:51:00,76.9,-99.9,29.99,East,90,7.0,12.0,-999,0.00,,,-99.99,WeatherLink 5.5,2013-05-31 07:51:00,
2013-05-31 04:00:00,76.8,-99.9,30.00,ESE,112,6.0,13.0,-999,0.00,,,-99.99,WeatherLink 5.5,2013-05-31 08:00:00,
2013-05-31 04:11:00,76.8,76.8,29.99,East,90,6.0,13.0,100,0.00,,,-99.99,WeatherLink 5.5,2013-05-31 08:11:00,
2013-05-31 04:20:00,76.8,76.8,30.00,East,90,3.0,9.0,100,0.00,,,-99.99,WeatherLink 5.5,2013-05-31 08:20:00,
2013-05-31 04:30:00,77.0,-99.9,30.00,ESE,112,4.0,11.0,-999,0.00,,,-99.99,WeatherLink 5.5,2013-05-31 08:30:00,
2013-05-31 04:36:00,77.1,77.1,30.00,East,90,3.0,10.0,100,0.00,,,-99.99,WeatherLink 5.5,2013-05-31 08:36:00,
2013-05-31 04:45:00,77.2,-99.9,30.00,East,90,4.0,11.0,-999,0.00,,,-99.99,WeatherLink 5.5,2013-05-31 08:45:00,
2013-05-31 04:56:00,77.5,77.5,30.01,East,90,3.0,9.0,100,0.00,,,-99.99,WeatherLink 5.5,2013-05-31 08:56:00,
2013-05-31 05:06:00,77.5,77.5,30.01,East,90,2.0,7.0,100,0.00,,,-99.99,WeatherLink 5.5,2013-05-31 09:06:00,
2013-05-31 05:15:00,77.5,77.5,30.00,ENE,67,3.0,9.0,100,0.00,,,-99.99,WeatherLink 5.5,2013-05-31 09:15:00,
2013-05-31 05:21:00,77.6,77.6,30.00,East,90,3.0,11.0,100,0.00,,,-99.99,WeatherLink 5.5,2013-05-31 09:21:00,
2013-05-31 05:30:00,77.4,77.4,30.00,East,90,5.0,11.0,100,0.00,,,-99.99,WeatherLink 5.5,2013-05-31 09:30:00,
2013-05-31 05:36:00,77.3,-99.9,30.01,East,90,3.0,10.0,-999,0.00,,,-99.99,WeatherLink 5.5,2013-05-31 09:36:00,
2013-05-31 05:45:00,77.0,-99.9,30.01,East,90,2.0,7.0,-999,0.00,,,-99.99,WeatherLink 5.5,2013-05-31 09:45:00,
2013-05-31 05:56:00,76.9,-99.9,30.01,East,90,2.0,7.0,-999,0.00,,,-99.99,WeatherLink 5.5,2013-05-31 09:56:00,
2013-05-31 06:05:00,77.0,-99.9,30.01,East,90,4.0,10.0,-999,0.00,,,-99.99,WeatherLink 5.5,2013-05-31 10:05:00,
2013-05-31 06:11:00,77.0,72.1,30.01,East,90,2.0,9.0,85,0.00,,,-99.99,WeatherLink 5.5,2013-05-31 10:11:00,
2013-05-31 06:20:00,76.4,-99.9,30.05,ESE,112,5.0,12.0,-999,0.00,,,-99.99,WeatherLink 5.5,2013-05-31 10:20:00,
2013-05-31 06:25:00,76.0,70.1,30.00,ESE,112,1.0,7.0,82,0.00,,,-99.99,WeatherLink 5.5,2013-05-31 10:25:00,
2013-05-31 06:36:00,75.4,-99.9,30.03,ESE,112,3.0,9.0,-999,0.00,,,-99.99,WeatherLink 5.5,2013-05-31 10:36:00,
2013-05-31 06:45:00,75.2,-99.9,30.02,East,90,5.0,10.0,-999,0.00,,,-99.99,WeatherLink 5.5,2013-05-31 10:45:00,
2013-05-31 06:51:00,75.1,-99.9,30.02,East,90,4.0,11.0,-999,0.00,,,-99.99,WeatherLink 5.5,2013-05-31 10:51:00,
2013-05-31 07:00:00,75.2,-99.9,30.03,ESE,112,4.0,9.0,-999,0.00,,,-99.99,WeatherLink 5.5,2013-05-31 11:00:00,
2013-05-31 07:06:00,75.2,-99.9,30.02,East,90,6.0,11.0,-999,0.00,,,-99.99,WeatherLink 5.5,2013-05-31 11:06:00,
2013-05-31 07:15:00,75.0,-99.9,30.02,East,90,2.0,6.0,-999,0.00,,,-99.99,WeatherLink 5.5,2013-05-31 11:15:00,
2013-05-31 07:21:00,75.1,-99.9,30.02,East,90,3.0,7.0,-999,0.00,,,-99.99,WeatherLink 5.5,2013-05-31 11:21:00,
2013-05-31 07:30:00,75.0,-99.9,30.02,East,90,6.0,12.0,-999,0.00,,,-99.99,WeatherLink 5.5,2013-05-31 11:30:00,
2013-05-31 07:36:00,74.9,-99.9,30.03,East,90,4.0,10.0,-999,0.00,,,-99.99,WeatherLink 5.5,2013-05-31 11:36:00,
2013-05-31 07:45:00,75.0,-99.9,30.03,East,90,2.0,7.0,-999,0.00,,,-99.99,WeatherLink 5.5,2013-05-31 11:45:00,
2013-05-31 07:56:00,75.2,-99.9,30.03,East,90,1.0,5.0,-999,0.00,,,-99.99,WeatherLink 5.5,2013-05-31 11:56:00,
2013-05-31 08:06:00,75.1,-99.9,30.03,ENE,67,2.0,8.0,-999,0.01,,,-99.99,WeatherLink 5.5,2013-05-31 12:06:00,
2013-05-31 08:15:00,75.5,-99.9,30.03,ENE,67,1.0,6.0,-999,0.01,,,-99.99,WeatherLink 5.5,2013-05-31 12:15:00,
2013-05-31 08:21:00,75.8,-99.9,30.03,ENE,67,4.0,10.0,-999,0.01,,,-99.99,WeatherLink 5.5,2013-05-31 12:21:00,
2013-05-31 08:30:00,77.0,-99.9,30.04,East,90,4.0,10.0,-999,0.01,,,-99.99,WeatherLink 5.5,2013-05-31 12:30:00,
2013-05-31 08:36:00,77.8,-99.9,30.04,East,90,5.0,13.0,-999,0.01,,,-99.99,WeatherLink 5.5,2013-05-31 12:36:00,
2013-05-31 08:45:00,79.1,-99.9,30.04,East,90,2.0,9.0,-999,0.01,,,-99.99,WeatherLink 5.5,2013-05-31 12:45:00,
2013-05-31 08:51:00,79.6,-99.9,30.04,East,90,4.0,12.0,-999,0.01,,,-99.99,WeatherLink 5.5,2013-05-31 12:51:00,
2013-05-31 09:00:00,80.0,-99.9,30.04,East,90,5.0,12.0,-999,0.01,,,-99.99,WeatherLink 5.5,2013-05-31 13:00:00,
2013-05-31 09:06:00,80.0,-99.9,30.04,ENE,67,6.0,11.0,-999,0.00,,,-99.99,WeatherLink 5.5,2013-05-31 13:06:00,
2013-05-31 09:15:00,79.7,-99.9,30.04,East,90,5.0,12.0,-999,0.00,,,-99.99,WeatherLink 5.5,2013-05-31 13:15:00,
2013-05-31 09:26:00,79.8,-99.9,30.04,East,90,6.0,12.0,-999,0.00,,,-99.99,WeatherLink 5.5,2013-05-31 13:26:00,
2013-05-31 09:35:00,80.8,-99.9,30.04,East,90,8.0,15.0,-999,0.00,,,-99.99,WeatherLink 5.5,2013-05-31 13:35:00,
2013-05-31 09:41:00,81.3,74.9,30.04,East,90,5.0,14.0,81,0.00,,,-99.99,WeatherLink 5.5,2013-05-31 13:41:00,
2013-05-31 09:50:00,82.0,-99.9,30.04,East,90,7.0,15.0,-999,0.00,,,-99.99,WeatherLink 5.5,2013-05-31 13:50:00,
2013-05-31 09:56:00,81.5,-99.9,30.03,East,90,8.0,15.0,-999,0.00,,,-99.99,WeatherLink 5.5,2013-05-31 13:56:00,
2013-05-31 10:05:00,81.4,-99.9,30.05,East,90,6.0,17.0,-999,0.00,,,-99.99,WeatherLink 5.5,2013-05-31 14:05:00,
2013-05-31 10:11:00,81.4,-99.9,30.04,ENE,67,7.0,15.0,-999,0.00,,,-99.99,WeatherLink 5.5,2013-05-31 14:11:00,
2013-05-31 10:21:00,81.2,-99.9,30.04,ENE,67,9.0,15.0,-999,0.00,,,-99.99,WeatherLink 5.5,2013-05-31 14:21:00,
2013-05-31 10:30:00,81.3,-99.9,30.04,ENE,67,8.0,16.0,-999,0.00,,,-99.99,WeatherLink 5.5,2013-05-31 14:30:00,
2013-05-31 10:41:00,81.7,80.8,30.04,East,90,7.0,13.0,97,0.00,,,-99.99,WeatherLink 5.5,2013-05-31 14:41:00,
2013-05-31 10:51:00,82.0,82.0,30.04,ENE,67,9.0,17.0,100,0.00,,,-99.99,WeatherLink 5.5,2013-05-31 14:51:00,
2013-05-31 11:01:00,81.5,81.5,30.05,ENE,67,8.0,16.0,100,0.00,,,-99.99,WeatherLink 5.5,2013-05-31 15:01:00,
2013-05-31 11:10:00,82.1,82.1,30.05,East,90,9.0,16.0,100,0.00,,,-99.99,WeatherLink 5.5,2013-05-31 15:10:00,
2013-05-31 11:21:00,82.4,82.4,30.05,East,90,9.0,16.0,100,0.00,,,-99.99,WeatherLink 5.5,2013-05-31 15:21:00,
2013-05-31 11:30:00,83.2,83.2,30.05,ENE,67,6.0,15.0,100,0.00,,,-99.99,WeatherLink 5.5,2013-05-31 15:30:00,
2013-05-31 11:41:00,83.1,83.1,30.04,ENE,67,9.0,16.0,100,0.00,,,-99.99,WeatherLink 5.5,2013-05-31 15:41:00,
2013-05-31 11:50:00,83.3,83.3,30.05,ENE,67,8.0,16.0,100,0.00,,,-99.99,WeatherLink 5.5,2013-05-31 15:50:00,
2013-05-31 12:01:00,83.5,83.5,30.05,ENE,67,5.0,11.0,100,0.01,,,-99.99,WeatherLink 5.5,2013-05-31 16:01:00,
2013-05-31 12:11:00,83.7,83.7,30.05,ENE,67,8.0,14.0,100,0.01,,,-99.99,WeatherLink 5.5,2013-05-31 16:11:00,
2013-05-31 12:20:00,84.2,84.2,30.04,ENE,67,9.0,18.0,100,0.01,,,-99.99,WeatherLink 5.5,2013-05-31 16:20:00,
2013-05-31 12:26:00,84.1,84.1,30.04,ENE,67,8.0,16.0,100,0.01,,,-99.99,WeatherLink 5.5,2013-05-31 16:26:00,
2013-05-31 12:35:00,83.9,83.9,30.04,East,90,8.0,17.0,100,0.01,,,-99.99,WeatherLink 5.5,2013-05-31 16:35:00,
2013-05-31 12:41:00,83.9,83.9,30.04,East,90,8.0,14.0,100,0.01,,,-99.99,WeatherLink 5.5,2013-05-31 16:41:00,
2013-05-31 12:51:00,83.5,83.5,30.05,ENE,67,8.0,17.0,100,0.01,,,-99.99,WeatherLink 5.5,2013-05-31 16:51:00,
2013-05-31 13:00:00,82.9,82.9,30.05,ENE,67,7.0,18.0,100,0.00,,,-99.99,WeatherLink 5.5,2013-05-31 17:00:00,
2013-05-31 13:11:00,83.9,83.9,30.04,ENE,67,6.0,15.0,100,0.00,,,-99.99,WeatherLink 5.5,2013-05-31 17:11:00,
2013-05-31 13:21:00,83.8,83.8,30.04,East,90,10.0,16.0,100,0.00,,,-99.99,WeatherLink 5.5,2013-05-31 17:21:00,
2013-05-31 13:30:00,84.0,84.0,30.04,ENE,67,7.0,15.0,100,0.00,,,-99.99,WeatherLink 5.5,2013-05-31 17:30:00,
2013-05-31 13:36:00,84.0,84.0,30.04,ENE,67,9.0,19.0,100,0.00,,,-99.99,WeatherLink 5.5,2013-05-31 17:36:00,
2013-05-31 13:46:00,83.8,83.8,30.04,ENE,67,8.0,18.0,100,0.00,,,-99.99,WeatherLink 5.5,2013-05-31 17:46:00,
2013-05-31 13:55:00,84.2,84.2,30.03,ENE,67,9.0,17.0,100,0.00,,,-99.99,WeatherLink 5.5,2013-05-31 17:55:00,
2013-05-31 14:06:00,84.0,84.0,30.03,ENE,67,9.0,19.0,100,0.00,,,-99.99,WeatherLink 5.5,2013-05-31 18:06:00,
2013-05-31 14:16:00,83.6,83.6,30.03,ENE,67,9.0,18.0,100,0.00,,,-99.99,WeatherLink 5.5,2013-05-31 18:16:00,
2013-05-31 14:26:00,84.0,84.0,30.03,East,90,8.0,17.0,100,0.00,,,-99.99,WeatherLink 5.5,2013-05-31 18:26:00,
2013-05-31 14:36:00,84.5,84.5,30.02,ENE,67,5.0,14.0,100,0.00,,,-99.99,WeatherLink 5.5,2013-05-31 18:36:00,
2013-05-31 14:46:00,83.7,83.7,30.02,ENE,67,9.0,18.0,100,0.00,,,-99.99,WeatherLink 5.5,2013-05-31 18:46:00,
2013-05-31 14:56:00,83.9,83.9,30.02,ENE,67,5.0,16.0,100,0.00,,,-99.99,WeatherLink 5.5,2013-05-31 18:56:00,
2013-05-31 15:05:00,83.7,83.7,30.01,ENE,67,8.0,14.0,100,0.00,,,-99.99,WeatherLink 5.5,2013-05-31 19:05:00,
2013-05-31 15:16:00,83.3,83.3,30.01,East,90,9.0,14.0,100,0.00,,,-99.99,WeatherLink 5.5,2013-05-31 19:16:00,
2013-05-31 15:25:00,83.5,83.5,30.01,East,90,6.0,12.0,100,0.00,,,-99.99,WeatherLink 5.5,2013-05-31 19:25:00,
2013-05-31 15:31:00,84.0,84.0,30.00,ENE,67,7.0,12.0,100,0.00,,,-99.99,WeatherLink 5.5,2013-05-31 19:31:00,
2013-05-31 15:40:00,83.2,83.2,30.00,ENE,67,5.0,14.0,100,0.00,,,-99.99,WeatherLink 5.5,2013-05-31 19:40:00,
2013-05-31 15:51:00,82.4,82.4,30.00,ENE,67,4.0,8.0,100,0.00,,,-99.99,WeatherLink 5.5,2013-05-31 19:51:00,
2013-05-31 15:55:00,82.7,82.7,30.00,ENE,67,7.0,15.0,100,0.00,,,-99.99,WeatherLink 5.5,2013-05-31 19:55:00,
2013-05-31 16:00:00,82.6,82.6,30.00,ENE,67,7.0,16.0,100,0.01,,,-99.99,WeatherLink 5.5,2013-05-31 20:00:00,
2013-05-31 16:10:00,82.5,82.5,30.00,ENE,67,4.0,13.0,100,0.01,,,-99.99,WeatherLink 5.5,2013-05-31 20:10:00,
2013-05-31 16:11:00,82.6,82.6,30.00,ENE,67,6.0,15.0,100,0.01,,,-99.99,WeatherLink 5.5,2013-05-31 20:11:00,
2013-05-31 16:15:00,82.3,82.3,30.00,NE,45,5.0,13.0,100,0.01,,,-99.99,WeatherLink 5.5,2013-05-31 20:15:00,
2013-05-31 16:25:00,81.9,81.9,30.00,NE,45,5.0,11.0,100,0.01,,,-99.99,WeatherLink 5.5,2013-05-31 20:25:00,
2013-05-31 16:36:00,80.8,80.8,30.00,NE,45,6.0,13.0,100,0.01,,,-99.99,WeatherLink 5.5,2013-05-31 20:36:00,
2013-05-31 16:45:00,79.8,79.8,30.00,NE,45,5.0,11.0,100,0.01,,,-99.99,WeatherLink 5.5,2013-05-31 20:45:00,
2013-05-31 16:51:00,79.7,79.7,30.00,ENE,67,5.0,12.0,100,0.01,,,-99.99,WeatherLink 5.5,2013-05-31 20:51:00,
2013-05-31 17:00:00,79.8,79.8,30.00,NE,45,6.0,14.0,100,0.01,,,-99.99,WeatherLink 5.5,2013-05-31 21:00:00,
2013-05-31 17:11:00,78.2,78.2,30.01,NNE,22,5.0,12.0,100,0.00,,,-99.99,WeatherLink 5.5,2013-05-31 21:11:00,
2013-05-31 17:21:00,77.8,76.9,30.00,NNE,22,2.0,9.0,97,0.00,,,-99.99,WeatherLink 5.5,2013-05-31 21:21:00,
2013-05-31 17:31:00,77.9,72.0,29.99,East,90,3.0,9.0,82,0.00,,,-99.99,WeatherLink 5.5,2013-05-31 21:31:00,
2013-05-31 17:40:00,78.0,-99.9,30.00,East,90,6.0,13.0,-999,0.00,,,-99.99,WeatherLink 5.5,2013-05-31 21:40:00,
2013-05-31 17:51:00,78.1,-99.9,29.99,East,90,5.0,15.0,-999,0.00,,,-99.99,WeatherLink 5.5,2013-05-31 21:51:00,
2013-05-31 18:00:00,78.7,72.4,30.00,East,90,5.0,10.0,81,0.00,,,-99.99,WeatherLink 5.5,2013-05-31 22:00:00,
2013-05-31 18:06:00,78.7,-99.9,29.99,ENE,67,4.0,10.0,-999,0.00,,,-99.99,WeatherLink 5.5,2013-05-31 22:06:00,
2013-05-31 18:16:00,78.7,-99.9,29.99,East,90,2.0,6.0,-999,0.00,,,-99.99,WeatherLink 5.5,2013-05-31 22:16:00,
2013-05-31 18:25:00,79.0,-99.9,29.99,East,90,3.0,9.0,-999,0.00,,,-99.99,WeatherLink 5.5,2013-05-31 22:25:00,
2013-05-31 18:36:00,78.9,-99.9,30.00,ENE,67,6.0,12.0,-999,0.00,,,-99.99,WeatherLink 5.5,2013-05-31 22:36:00,
2013-05-31 18:45:00,78.7,-99.9,30.00,East,90,6.0,12.0,-999,0.00,,,-99.99,WeatherLink 5.5,2013-05-31 22:45:00,
2013-05-31 18:51:00,78.2,-99.9,29.99,East,90,6.0,12.0,-999,0.00,,,-99.99,WeatherLink 5.5,2013-05-31 22:51:00,
2013-05-31 19:00:00,78.1,-99.9,30.00,East,90,5.0,10.0,-999,0.00,,,-99.99,WeatherLink 5.5,2013-05-31 23:00:00,
2013-05-31 19:06:00,78.1,-99.9,30.00,East,90,6.0,15.0,-999,0.00,,,-99.99,WeatherLink 5.5,2013-05-31 23:06:00,
2013-05-31 19:15:00,78.1,-99.9,30.01,East,90,5.0,11.0,-999,0.00,,,-99.99,WeatherLink 5.5,2013-05-31 23:15:00,
2013-05-31 19:21:00,78.2,-99.9,30.00,East,90,3.0,10.0,-999,0.00,,,-99.99,WeatherLink 5.5,2013-05-31 23:21:00,
2013-05-31 19:30:00,78.3,-99.9,30.01,ENE,67,5.0,14.0,-999,0.01,,,-99.99,WeatherLink 5.5,2013-05-31 23:30:00,
2013-05-31 19:36:00,78.4,-99.9,30.01,ENE,67,2.0,9.0,-999,0.01,,,-99.99,WeatherLink 5.5,2013-05-31 23:36:00,
2013-05-31 19:45:00,78.2,-99.9,30.01,ENE,67,2.0,7.0,-999,0.01,,,-99.99,WeatherLink 5.5,2013-05-31 23:45:00,
2013-05-31 19:51:00,78.1,-99.9,30.01,East,90,3.0,10.0,-999,0.01,,,-99.99,WeatherLink 5.5,2013-05-31 23:51:00,
2013-05-31 20:01:00,78.0,71.7,30.01,East,90,2.0,6.0,81,0.01,,,-99.99,WeatherLink 5.5,2013-06-01 00:01:00,
2013-05-31 20:10:00,78.0,-99.9,30.01,East,90,3.0,10.0,-999,0.01,,,-99.99,WeatherLink 5.5,2013-06-01 00:10:00,
2013-05-31 20:21:00,77.6,-99.9,30.01,East,90,2.0,6.0,-999,0.01,,,-99.99,WeatherLink 5.5,2013-06-01 00:21:00,
2013-05-31 20:30:00,77.4,-99.9,30.02,East,90,2.0,8.0,-999,0.00,,,-99.99,WeatherLink 5.5,2013-06-01 00:30:00,
2013-05-31 20:36:00,77.4,-99.9,30.02,ENE,67,2.0,7.0,-999,0.00,,,-99.99,WeatherLink 5.5,2013-06-01 00:36:00,
2013-05-31 20:45:00,77.3,-99.9,30.02,East,90,3.0,8.0,-999,0.00,,,-99.99,WeatherLink 5.5,2013-06-01 00:45:00,
2013-05-31 20:51:00,77.4,-99.9,30.01,East,90,3.0,9.0,-999,0.00,,,-99.99,WeatherLink 5.5,2013-06-01 00:51:00,
2013-05-31 21:00:00,77.5,-99.9,30.01,East,90,4.0,10.0,-999,0.00,,,-99.99,WeatherLink 5.5,2013-06-01 01:00:00,
2013-05-31 21:06:00,77.5,-99.9,30.02,East,90,4.0,11.0,-999,0.00,,,-99.99,WeatherLink 5.5,2013-06-01 01:06:00,
2013-05-31 21:15:00,77.5,-99.9,30.02,East,90,2.0,8.0,-999,0.00,,,-99.99,WeatherLink 5.5,2013-06-01 01:15:00,
2013-05-31 21:21:00,77.5,-99.9,30.02,East,90,1.0,5.0,-999,0.00,,,-99.99,WeatherLink 5.5,2013-06-01 01:21:00,
2013-05-31 21:30:00,77.4,-99.9,30.02,East,90,3.0,9.0,-999,0.00,,,-99.99,WeatherLink 5.5,2013-06-01 01:30:00,
2013-05-31 21:36:00,77.5,-99.9,30.02,East,90,1.0,9.0,-999,0.00,,,-99.99,WeatherLink 5.5,2013-06-01 01:36:00,
2013-05-31 21:45:00,77.5,-99.9,30.02,East,90,5.0,13.0,-999,0.00,,,-99.99,WeatherLink 5.5,2013-06-01 01:45:00,
2013-05-31 21:51:00,77.5,-99.9,30.02,East,90,7.0,13.0,-999,0.00,,,-99.99,WeatherLink 5.5,2013-06-01 01:51:00,
2013-05-31 21:56:00,77.2,-99.9,30.02,East,90,5.0,12.0,-999,0.00,,,-99.99,WeatherLink 5.5,2013-06-01 01:56:00,
2013-05-31 22:06:00,76.9,-99.9,30.02,East,90,6.0,11.0,-999,0.00,,,-99.99,WeatherLink 5.5,2013-06-01 02:06:00,
2013-05-31 22:16:00,76.7,-99.9,30.02,East,90,5.0,11.0,-999,0.00,,,-99.99,WeatherLink 5.5,2013-06-01 02:16:00,
2013-05-31 22:25:00,76.7,-99.9,30.02,East,90,1.0,6.0,-999,0.00,,,-99.99,WeatherLink 5.5,2013-06-01 02:25:00,
2013-05-31 22:36:00,76.7,-99.9,30.02,East,90,2.0,7.0,-999,0.00,,,-99.99,WeatherLink 5.5,2013-06-01 02:36:00,
2013-05-31 22:45:00,76.7,-99.9,30.02,East,90,2.0,6.0,-999,0.00,,,-99.99,WeatherLink 5.5,2013-06-01 02:45:00,
2013-05-31 22:56:00,76.7,-99.9,30.03,ESE,112,3.0,9.0,-999,0.00,,,-99.99,WeatherLink 5.5,2013-06-01 02:56:00,
2013-05-31 23:06:00,76.5,-99.9,30.02,ESE,112,0.0,3.0,-999,0.00,,,-99.99,WeatherLink 5.5,2013-06-01 03:06:00,
2013-05-31 23:16:00,76.5,-99.9,30.03,ESE,112,1.0,6.0,-999,0.00,,,-99.99,WeatherLink 5.5,2013-06-01 03:16:00,
2013-05-31 23:25:00,76.7,-99.9,30.02,East,90,3.0,8.0,-999,0.00,,,-99.99,WeatherLink 5.5,2013-06-01 03:25:00,
2013-05-31 23:31:00,76.8,-99.9,30.02,East,90,4.0,10.0,-999,0.00,,,-99.99,WeatherLink 5.5,2013-06-01 03:31:00,
2013-05-31 23:41:00,77.0,-99.9,30.02,East,90,3.0,9.0,-999,0.00,,,-99.99,WeatherLink 5.5,2013-06-01 03:41:00,
2013-05-31 23:50:00,77.2,-99.9,30.01,East,90,2.0,7.0,-999,0.00,,,-99.99,WeatherLink 5.5,2013-06-01 03:50:00,
2013-05-31 23:56:00,77.2,-99.9,30.01,East,90,3.0,8.0,-999,0.00,,,-99.99,WeatherLink 5.5,2013-06-01 03:56:00,